Terug naar catalogus

STARLINK-5381

ActiefCommunicatieVLEO
NORAD 54828·PAYLOAD·🇺🇸 United States

Gelanceerd Dec 28, 2022 vanaf Cape Canaveral Space Force Station

Loading…

Volgende Passages (komende 24 uur)

TLE

VersSource: CelesTrak SupGP

Epoch: Sep 14, 2026, 22:23 UTC

1 54828C 22177J   26257.93312500 -.00017369  00000+0 -62949-3 0  2578
2 54828  43.0011 147.5285 0001012 250.4774  91.7120 15.27567173    18

Volg STARLINK-5381 in realtime met AllMySat

Download on the App Store